Zurück zum Katalog

PRAETORIAN SDA_509

AktivPO
NORAD 100067·PAYLOAD·🇺🇸 United States

Gestartet Jul 16, 2026 von Vandenberg Space Force Base

Loading…

Nächste Überflüge (nächste 24 Stunden)

TLE

AktuellSource: Space-Track

Epoche: Sep 14, 2026, 23:28 UTC

1 A0067U 26163J   26257.97846172  .00000142  00000-0  11308-3 0  9990
2 A0067  81.4759 254.9857 0014890  53.8174 306.4359 13.85606224  8330

Verfolge PRAETORIAN SDA_509 in Echtzeit mit AllMySat

Download on the App Store